www.pogodaiklimat.ru

Погода и климат >> Архив погоды >> Южная Африка >> Понгола


ПОГОДА в Понголе

  • Прогноз погоды в Понголе
  • Монитор погоды в Понголе

АРХИВ ПОГОДЫ в Понголе

Время (UTC), дата Ветер
(напр.,м/с)
 
Видим.   Явления Облачность Т
(С)
Тd
(С)
f
(%)
Тe
(С)
Тes
(С)
Комфортность P
(гПа)
Po
(гПа)
Тmin
(С)
Tmax
(С)
R
(мм)
R24
(мм)
S
(см)
00 15.09 Ю 1 н/о н/о +15.9 +14.9 94 +17 +17 1022.4 984.7 +15.7 +20.2 0.2
06 15.09 СВ 1 н/о н/о +16.6 +15.4 93 +17 +17 1023.2 985.6 +15.7 0.2
12 15.09 С 3 н/о н/о +24.3 +15.6 58 +27 +27 жарко 1018.7 982.2 +15.7 +24.3
18 15.09 С 1 н/о н/о +21.4 +16.0 71 +25 +25 комфорт 1020.2 983.3 +21.4 +24.8
00 16.09 С 1 н/о н/о +19.2 +17.3 89 +22 +22 комфорт 1020.4 983.2 +19.2 +24.8
12 16.09 С 3 н/о н/о +29.8 +17.1 46 +33 +33 душно 1016.5 980.7 +18.7 +29.9
18 16.09 С 2 н/о н/о +22.9 +17.6 72 +28 +28 душно 1020.0 983.3 +22.3 +30.2
00 17.09 С 2 н/о н/о +20.4 +18.2 87 +25 +25 комфорт 1021.0 983.9 +20.4 +30.2
06 17.09 СЗ 2 н/о н/о +22.0 +18.2 79 +27 +27 душно 1020.6 983.7 +19.7
12 17.09 С 3 н/о н/о +32.0 +17.0 41 +36 +36 очень
душно
1015.3 979.8 +19.7 +32.0
18 17.09 СЗ 1 н/о н/о +23.9 +16.5 63 +27 +27 жарко 1017.5 981.0 +23.7 +32.8
00 18.09 Ю 2 н/о н/о +18.5 +16.3 87 +20 +20 1018.1 980.9 +18.5 +32.8
06 18.09 В 1 н/о н/о +21.8 +17.2 75 +26 +26 душно 1018.8 982.0 +15.9
12 18.09 С 4 н/о н/о +34.9 +13.5 28 +36 +36 душно 1014.7 979.6 +15.9 +35.2
18 18.09 ЮВ 3 н/о н/о +21.8 +15.2 66 +25 +25 комфорт 1022.3 985.4 +21.8 +35.2
00 19.09 Ю 1 н/о н/о +20.1 +15.8 76 +24 +24 комфорт 1023.9 986.7 +19.6 +35.2
06 19.09 СВ 1 н/о н/о +22.4 +16.7 70 +27 +27 душно 1025.4 988.4 +19.6
12 19.09 В 2 н/о н/о +29.3 +16.3 45 +32 +32 душно 1020.4 984.4 +19.6 +29.3
18 19.09 В 1 н/о н/о +21.7 +16.9 74 +26 +26 душно 1023.8 986.8 +21.7 +30.0
00 20.09 С 2 н/о н/о +20.7 +16.9 79 +25 +25 комфорт 1023.1 986.0 +20.7 +30.0
06 20.09 СЗ 2 н/о н/о +23.5 +18.0 71 +28 +28 душно 1021.2 984.5 +19.8
12 20.09 С 3 н/о н/о +32.0 +17.0 41 +36 +36 очень
душно
1014.1 978.7 +19.8 +32.1
18 20.09 СВ 3 н/о н/о +24.0 +16.6 63 +27 +27 жарко 1015.7 979.3 +24.0 +32.7
00 21.09 Ю 1 н/о н/о +18.1 +15.9 87 +19 +19 1016.4 979.2 +17.8 +32.7
06 21.09 ЮВ 1 н/о н/о +21.7 +16.5 72 +26 +26 душно 1016.2 979.5 +16.3
12 21.09 С 3 н/о н/о +36.0 +10.7 22 +35 +35 очень
жарко
1009.2 974.4 +16.3 +36.4
18 21.09 З 2 н/о н/о +28.3 +12.4 37 +29 +29 жарко 1011.8 976.0 +28.0 +36.4

 

Местоположение метеостанции Понгола (Южная Африка): широта -27.41 долгота 31.60 высота над уровнем моря 312 м.

В архиве по умолчанию представлена погода в Понголе за последнюю неделю. Архивные данные за месяц целиком и за предыдущие месяцы, начиная с января 2011 года, Вы можете получить, выбрав интересующий диапазон дат из раскрывающегося списка и нажав кнопку "Ввод!".


*Определитесь, кто Вы:
робот инопланетянин человек

Внимание! Время в таблицах - всемирное. Для получения местного времени необходимо прибавить поправку, которая равна 2 ч.

Смотрите также архив погоды в соседних городах и на ближайших метеорологических станциях:

Погода в Иерихоне (Свазиленд) (32 км)
Погода в Нхлангано (Свазиленд) (50 км)
Погода в Макатини (Южная Африка) (57 км)
Погода в Ндзевейне (Свазиленд) (61 км)
Погода в Биг-Бенде (Свазиленд) (72 км)
Погода на Дамбе Lubovane (Свазиленд) (75 км)
Погода в Моти (Свазиленд) (81 км)
Погода в Фрейхейде (Южная Африка) (89 км)
Погода в Мбазване (Южная Африка) (99 км)
Погода в Манзини (Свазиленд) (102 км)

Пояснения к столбцам:

Ветер - указаны скорость ветра в м/с - средняя за 10 мин, порывы в срок и между сроками (в фигурных скобках) и направление, откуда дует ветер: С - северный, СВ - северо-восточный, В - восточный, ЮВ - юго-восточный, Ю - южный, ЮЗ - юго-западный, З - западный, СЗ - северо-западный.
Видимость - горизонтальная дальность видимости в метрах или километрах. При видимости от 1 до 10 км при отсутствии осадков обычно наблюдается дымка, при ухудшении видимости до 1 км и менее - туман. В сухую погоду видимость может ухудшаться дымом, пылью или мглою.
Явления - указаны атмосферные явления, наблюдавшиеся в срок или в последний час перед сроком; фигурными скобками обозначены явления, наблюдавшиеся между сроками (за 1-3 часа до срока); квадратными скобками обозначены град или гололедные отложения с указанием их диаметра в мм.
Облачность - указаны через наклонную черту общая и нижняя облачность в баллах и высота нижней границы облаков в метрах; квадратными скобками обозначены формы облаков: Ci - перистые, Cs - перисто-слоистые, Cc - перисто-кучевые, Ac - высококучевые, As - высокослоистые, Sc - слоисто-кучевые, Ns - слоисто-дождевые, Cu - кучевые, Cb - кучево-дождевые. Подробнее классификацию облаков см. в Атласе облаков (PDF).
T - Температура воздуха - температура, измеренная на высоте 2 м над землей.
Td - Температура точки росы - температура, при понижении до которой содержащийся в воздухе водяной пар достигнет насыщения.
f - Относительная влажность воздуха - влажноcть воздуха, измеренная на высоте 2 м над землей.
Te - Эффективная температура - температура, которую ощущает одетый по сезону человек в тени. Характеристика душности погоды. При расчете учитывается влияние влажности воздуха и скорости ветра на теплоощущения человека.
Tes - Эффективная температура на солнце - температура, которую ощущает человек, с поправкой на солнечный нагрев. Характеристика знойности погоды. Зависит от высоты солнца над горизонтом, облачности и скорости ветра. Ночью, в пасмурную погоду, а также при ветре 12 м/с и более поправка равна нулю.
P - Атмосферное давление - приведенное к уровню моря атмосферное давление.
Po - Атмосферное давление - измеренное на уровне метеостанции атмосферное давление.
Tmin - Минимальная температура - минимум температуры воздуха на высоте 2 м над землей.
Tmax - Максимальная температура - максимум температуры воздуха на высоте 2 м над землей.
R - Количество осадков - Количество выпавших осадков за период времени, мм. При наведении курсора мыши на число - период времени, за который выпало указанное количество осадков.
R24 - Количество осадков - Количество выпавших осадков за 24 часа, мм.
S - Снежный покров - Высота снежного покрова, см. При наведении курсора мыши на число - состояние снежного покрова и степень покрытия местности в баллах.